Overview Statistics Trail Chart Weather Telemetry Raw packets
 

This is the latest recevied weather packets stored in our database for station/object SV9TNF-57. If no packets are shown the sender has not sent any weather packets the latest 10 day(s).

<< 46 47 48 49 50 51 52 >>
Time Temp. Humidity Pressure Rain* Wind** Luminosity Snow
1788347923 32.78° C 32% 995 hPa 0 mm 6.71 m/s, 307° - -
1788347622 32.78° C 33% 994.8 hPa 0 mm 4.92 m/s, 129° - -
1788347323 32.78° C 33% 995 hPa 0 mm 12.07 m/s, 300° - -
1788347022 33.33° C 30% 994.9 hPa 0 mm 12.07 m/s, 317° - -
1788346722 33.33° C 32% 994.9 hPa 0 mm 10.28 m/s, 17° - -
1788346422 32.78° C 32% 994.9 hPa 0 mm 4.92 m/s, 233° - -
1788346122 32.78° C 31% 994.9 hPa 0 mm 2.68 m/s, 301° - -
1788345822 32.78° C 30% 995.1 hPa 0 mm 17.88 m/s, 296° - -
1788345522 32.78° C 33% 995 hPa 0 mm 10.28 m/s, 314° - -
1788345222 32.78° C 33% 995 hPa 0 mm 8.94 m/s, 313° - -
1788344922 32.78° C 34% 994.8 hPa 0 mm 4.02 m/s, 31° - -
1788344622 32.78° C 33% 995.1 hPa 0 mm 9.39 m/s, 322° - -
1788344322 32.22° C 34% 995 hPa 0 mm 5.81 m/s, 277° - -
1788344022 32.22° C 34% 994.9 hPa 0 mm 16.99 m/s, 345° - -
1788343721 32.78° C 36% 995 hPa 0 mm 15.65 m/s, 325° - -
1788343421 32.22° C 35% 995.1 hPa 0 mm 11.18 m/s, 8° - -
1788343121 32.22° C 35% 994.9 hPa 0 mm 19.22 m/s, 295° - -
1788342821 32.22° C 34% 994.8 hPa 0 mm 11.62 m/s, 347° - -
1788342522 32.22° C 35% 994.9 hPa 0 mm 17.43 m/s, 282° - -
1788342221 32.78° C 34% 994.9 hPa 0 mm 12.07 m/s, 326° - -
1788341921 32.22° C 33% 995.3 hPa 0 mm 6.26 m/s, 291° - -
1788341621 32.22° C 33% 995.2 hPa 0 mm 8.05 m/s, 308° - -
1788341321 32.22° C 32% 995.1 hPa 0 mm 12.52 m/s, 346° - -
1788341021 32.22° C 34% 995.1 hPa 0 mm 9.39 m/s, 9° - -
1788340720 32.22° C 33% 995.1 hPa 0 mm 12.52 m/s, 347° - -

* Rain latest hour (hover to see other rain measurements)
** Current wind speed in m/s (hover to see current wind gust speed)